Overview Statistics Trail Chart Weather Telemetry Raw packets
 

This is the latest recevied weather packets stored in our database for station/object LU3HGB-WX. If no packets are shown the sender has not sent any weather packets the latest 10 day(s).

<< 34 35 36 37 38 39 40 >>
Time Temp. Humidity Pressure Rain* Wind** Luminosity Snow
1788447460 14.44° C 55% 1017 hPa 0 mm - 331 W/m² -
1788447159 14.44° C 57% 1016 hPa 0 mm - 398 W/m² -
1788446859 14.44° C 59% 1017 hPa 0 mm - 313 W/m² -
1788446561 13.89° C 56% 1017 hPa 0 mm - 335 W/m² -
1788446261 13.89° C 58% 1017 hPa 0 mm - 268 W/m² -
1788445960 13.33° C 60% 1017 hPa 0 mm - 269 W/m² -
1788445662 13.33° C 60% 1016 hPa 0 mm - 243 W/m² -
1788445360 13.33° C 61% 1016 hPa 0 mm - 249 W/m² -
1788445059 13.33° C 62% 1016 hPa 0 mm - 278 W/m² -
1788444759 12.78° C 64% 1016 hPa 0 mm - 264 W/m² -
1788444460 12.78° C 66% 1016 hPa 0 mm - 283 W/m² -
1788444160 12.22° C 68% 1016 hPa 0 mm - 244 W/m² -
1788443860 12.22° C 69% 1016 hPa 0 mm - 273 W/m² -
1788443560 11.67° C 69% 1016 hPa 0 mm - 299 W/m² -
1788443259 11.67° C 71% 1016 hPa 0 mm - 292 W/m² -
1788442960 11.67° C 72% 1016 hPa 0 mm - 274 W/m² -
1788442660 11.11° C 73% 1016 hPa 0 mm - 266 W/m² -
1788442360 11.11° C 72% 1016 hPa 0 mm - 217 W/m² -
1788442060 11.11° C 74% 1016 hPa 0 mm - 210 W/m² -
1788441759 10.56° C 76% 1016 hPa 0 mm - 137 W/m² -
1788441459 10.56° C 76% 1016 hPa 0 mm - 209 W/m² -
1788441161 10° C 77% 1016 hPa 0 mm - 237 W/m² -
1788440863 10° C 79% 1016 hPa 0 mm - 220 W/m² -
1788440561 9.44° C 78% 1016 hPa 0 mm - 175 W/m² -
1788440262 9.44° C 81% 1016 hPa 0 mm - 150 W/m² -

* Rain latest hour (hover to see other rain measurements)
** Current wind speed in m/s (hover to see current wind gust speed)